This is the latest recevied weather packets stored in our database for station/object KE0QIB. If no packets are shown the sender has not sent any weather packets the latest 10 day(s).
| Time | Temp. | Humidity | Pressure | Rain* | Wind** | Luminosity | Snow |
|---|---|---|---|---|---|---|---|
| 1777660924 | 13.33° C | 39% | 1004.3 hPa | 0 mm | - | - | - |
| 1777660624 | 13.33° C | 39% | 1004.4 hPa | 0 mm | - | - | - |
| 1777660324 | 13.33° C | 39% | 1004.4 hPa | 0 mm | - | - | - |
| 1777660024 | 13.33° C | 42% | 1004.4 hPa | 0 mm | - | - | - |
| 1777659724 | 13.33° C | 38% | 1004.1 hPa | 0 mm | - | - | - |
| 1777659424 | 13.33° C | 38% | 1004.1 hPa | 0 mm | - | - | - |
| 1777659124 | 13.33° C | 39% | 1004.1 hPa | 0 mm | - | - | - |
| 1777658824 | 13.33° C | 38% | 1004.1 hPa | 0 mm | - | - | - |
| 1777658524 | 13.33° C | 38% | 1004.1 hPa | 0 mm | - | - | - |
| 1777658224 | 13.33° C | 36% | 1004.1 hPa | 0 mm | - | - | - |
| 1777657924 | 13.33° C | 36% | 1004.2 hPa | 0 mm | - | - | - |
| 1777657624 | 13.33° C | 38% | 1004.2 hPa | 0 mm | - | - | - |
| 1777657324 | 13.33° C | 38% | 1004.2 hPa | 0 mm | - | - | - |
| 1777657024 | 13.33° C | 37% | 1004.4 hPa | 0 mm | - | - | - |
| 1777656724 | 13.33° C | 37% | 1004.4 hPa | 0 mm | - | - | - |
| 1777656424 | 12.78° C | 38% | 1004.4 hPa | 0 mm | - | - | - |
| 1777656124 | 12.78° C | 37% | 1004.2 hPa | 0 mm | - | - | - |
| 1777655824 | 12.78° C | 37% | 1004.2 hPa | 0 mm | - | - | - |
| 1777655524 | 12.22° C | 39% | 1004.2 hPa | 0 mm | - | - | - |
| 1777655224 | 12.22° C | 40% | 1004.6 hPa | 0 mm | - | - | - |
| 1777654924 | 11.67° C | 42% | 1004.6 hPa | 0 mm | - | - | - |
| 1777654624 | 11.67° C | 43% | 1004.6 hPa | 0 mm | - | - | - |
| 1777654324 | 11.67° C | 44% | 1004.6 hPa | 0 mm | - | - | - |
| 1777654024 | 11.11° C | 44% | 1004.6 hPa | 0 mm | - | - | - |
| 1777653724 | 11.11° C | 47% | 1004.6 hPa | 0 mm | - | - | - |
* Rain latest hour (hover to see other rain measurements)
** Current wind speed in m/s (hover to see current wind gust speed)